Weather Roundup
Issued by NWS

Home | Current Version | Previous Version | Graphics & Text | Print | Product List | Glossary Off
Versions: 1 2 3 4 5 6 7 8 9 10 11 12 13 14 15 16 17 18 19 20 21 22 23 24 25 26 27 28 29 30 31 32 33 34 35 36 37 38 39 40 41 42 43 44 45 46 47 48 49 50

000
NZUS93 KARX 251810
HRRWXR

CURRENT HOURLY OBSERVATIONS ACROSS
MUCH OF THE UPPER MISSISSIPPI VALLEY
NATIONAL WEATHER SERVICE LA CROSSE WI
100 PM CDT MON JUL 25 2016


...SOUTHEAST MINNESOTA...


CITY           SKY/WX    TMP DP  RH WIND       PRES   REMARKS
ROCHESTER      SUNNY     80  63  55 NW7       30.10S
ROCHESTER/MAYO FAIR      79  60  50 NW9       30.09S
WINONA         SUNNY     81  61  50 NW6       30.05F
AUSTIN         SUNNY     81  61  50 NW8       30.10S
ALBERT LEA     SUNNY     81  61  50 NW5       30.10F
DODGE CENTER   SUNNY     81  61  50 N8        30.10S
PRESTON        MOSUNNY   78  62  57 NW9       30.10S
OWATONNA       SUNNY     81  61  50 NW3       30.09F
FARIBAULT      SUNNY     81  63  54 CALM      30.09S
$$

...ELSEWHERE IN MINNESOTA...


CITY           SKY/WX    TMP DP  RH WIND       PRES   REMARKS
MINNEAPOLIS    SUNNY     84  59  42 W8        30.06S
INTNL FALLS    MOSUNNY   79  60  52 W9        29.99F
DULUTH         MOSUNNY   79  59  50 W14       30.02F
RED WING       MOSUNNY   82  61  47 CALM      30.04F
REDWOOD FALLS  SUNNY     83  59  44 CALM      30.09S
MANKATO        SUNNY     81  61  50 CALM      30.09F
WORTHINGTON    SUNNY     81  63  54 VRB6      30.14S
FAIRMONT       SUNNY     81  61  50 CALM      30.11S
$$

...SOUTHWEST WISCONSIN...


CITY           SKY/WX    TMP DP  RH WIND       PRES   REMARKS
LA CROSSE      SUNNY     82  63  52 W9        30.04S
PRAIRIE DU CHI MOSUNNY   81  59  46 NW10G17   30.04S
BOSCOBEL       SUNNY     86  62  44 NW8       30.04F
LONE ROCK      SUNNY     82  63  52 NW12      30.03F
PLATTEVILLE    SUNNY     80  65  59 NW10      30.05F
FORT MC COY    MOSUNNY   82  62  51 W9G16     30.05S
CAMP DOUGLAS   MOSUNNY   81  66  61 NW8       30.03F
MAUSTON-NEW LI PTCLDY    80  65  59 NW8       30.03S
VIROQUA        FAIR      80  63  56 NW9       30.07S
WIS DELLS      MOSUNNY   79  61  52 NW9       30.04S
$$

...ELSEWHERE IN WISCONSIN...


CITY           SKY/WX    TMP DP  RH WIND       PRES   REMARKS
MILWAUKEE      MOSUNNY   86  60  41 NW10      29.99S
MADISON        MOSUNNY   82  63  52 NW8       30.02F
GREEN BAY      SUNNY     81  68  64 W13G20    29.98R
EAU CLAIRE     SUNNY     82  61  48 NW9       30.04S
BLACK RVR FLS  FAIR      82  58  44 N7        30.04S
MEDFORD        SUNNY     76  61  59 W10G17    30.05S
WAUSAU         PTSUNNY   81  58  45 NW13      30.02R
WIS RAPIDS     SUNNY     83  59  44 N16G23    30.04S
MARSHFIELD     SUNNY     80  61  52 W13       30.04S
RICE LAKE      MOSUNNY   78  60  53 W5        30.07S
$$

...NORTHEAST IOWA...


CITY           SKY/WX    TMP DP  RH WIND       PRES   REMARKS
WATERLOO       SUNNY     82  62  50 NW13      30.06F
DUBUQUE        SUNNY     81  64  56 N12       30.07S
DECORAH        PTSUNNY   79  63  57 NW12G17   30.08R
MASON CITY     SUNNY     82  62  50 NW13      30.11F
CHARLES CITY   SUNNY     81  66  61 NW9G15    30.09F
OELWEIN        SUNNY     81  64  57 NW10      30.09S
$$

...ELSEWHERE IN IOWA...


CITY           SKY/WX    TMP DP  RH WIND       PRES   REMARKS
DES MOINES     MOSUNNY   87  59  38 N8        30.09F
IOWA CITY      SUNNY     84  65  52 NW9       30.06F
FORT DODGE     SUNNY     82  64  54 W6        30.13R
MARSHALLTOWN   SUNNY     84  63  49 N7        30.09S
CEDAR RAPIDS   SUNNY     82  65  56 NW9       30.06S
$$

...NORTHERN ILLINOIS...


CITY           SKY/WX    TMP DP  RH WIND       PRES   REMARKS
CHICAGO-OHARE  MOSUNNY   85  61  44 NW8       30.00S
CHICAGO-MIDWAY PTSUNNY   85  64  49 SE9       30.01R
MOLINE         MOSUNNY   86  64  47 CALM      30.04R
ROCKFORD       MOSUNNY   83  63  50 N10       30.03S
PEORIA         CLOUDY    84  72  67 CALM      30.04F
$$

NOTE: "FAIR" INDICATES FEW OR NO CLOUDS BELOW 12,000 FEET WITH NO
SIGNIFICANT WEATHER AND/OR OBSTRUCTIONS TO VISIBILITY. WIND
SPEEDS ARE IN MILES-PER-HOUR.




USA.gov is the U.S. government's official web portal to all federal, state and local government web resources and services.